SCP
0 0 0 0 0 0 0 0 0 0 0 0 0 0 -0 0 0 0 0 -0 -0 0 0 -0 -0 -0 0 -0 -0 -0 -0 -0 -0 -0 -0 0 0 -0 -0 0 0 0 0 0
0 0 0 0 0 0 0 0 0 0 0 0 0 0 0 -0 -0 -0 -0 -0 -0 -0 0 0 -0 -0 -0 0 -0 -0 -0 -0 0 0 0 0 0 0 0 0 0 0 0 0
0 0 0 0 0 0 0 0 0 0 0 0 0 0 0 0 -0 -0 0 0 -0 -0 0 0 -0 -0 -0 -0 0 0 0 -0 0 0 -0 0 0 0 0 0 -0 0 0 0
0 0 0 0 0 0 0 0 0 0 0 0 0 0 0 0 -0 -0 -0 0 0 -0 0 0 0 -0 -0 -0 0 0 0 0 0 0 0 0 0 0 0 -0 -0 -0 0 0
0 0 0 0 0 0 0 0 0 0 0 0 0 0 0 0 0 0 -0 0 0 0 -0 -0 0 0 -0 -0 0 0 0 0 0 0 0 0 0 0 0 0 -0 0 0 -0
0 0 0 0 0 0 0 0 0 0 0 0 0 0 0 0 0 0 0 0 0 0 0 0 0 0 -0 -0 0 0 0 0 0 0 0 0 0 0 0 0 0 0 0 -0
0 0 0 0 0 0 0 0 0 0 0 0 0 0 0 0 0 0 0 0 0 0 -0 0 0 -0 -0 -0 -0 0 0 0 0 0 0 0 0 0 0 0 -0 -0 -0 -0
0 0 0 0 0 0 0 0 0 0 0 0 0 0 0 0 0 0 0 0 0 0 0 0 0 0 0 0 0 0 0 0 0 0 0 0 0 0 0 0 0 0 -0 -0
0 0 0 0 0 0 0 0 0 0 0 0 0 0 0 0 0 0 0 0 0 0 0 0 0 0 0 0 0 0 0 0 0 0 0 0 0 0 0 0 0 0 0 -0
0 0 0 0 0 0 0 0 0 0 0 0 0 0 0 0 0 0 0 0 0 0 0 -0 -0 0 0 0 0 0 0 0 0 0 0 0 0 0 0 0 0 0 0 -0
0 0 0 0 0 0 0 0 0 0 0 0 0 0 0 0 0 0 0 0 0 0 0 0 0 -0 0 0 0 0 0 0 0 0 1 0 0 0 0 0 0 0 0 0
0 0 0 0 0 0 0 0 0 0 0 0 0 0 0 0 0 0 0 0 0 0 0 0 0 0 -0 0 0 0 0 0 0 0 1 1 1 0 0 0 0 0 0 0
0 0 0 0 0 0 0 0 0 0 0 0 0 0 0 0 0 0 0 0 0 0 0 0 0 0 0 0 0 0 0 0 0 0 0 0 0 1 0 0 0 0 0 0
0 0 0 0 0 0 0 0 0 0 0 0 0 0 0 0 0 0 0 0 0 0 0 0 0 0 0 0 0 0 0 0 0 0 0 0 0 0 0 0 0 0 0 0
0 0 0 0 0 0 0 0 0 0 0 0 0 0 0 0 0 0 0 0 0 0 0 0 0 0 0 0 0 0 0 0 0 0 0 0 0 0 1 0 1 0 0 0
0 0 0 0 0 0 0 0 0 0 0 0 0 0 0 0 0 0 0 0 0 0 0 0 0 0 0 0 0 0 0 0 1 0 0 0 0 0 1 0 0 1 1 0
0 0 0 0 0 0 0 0 0 0 0 0 0 0 0 0 0 0 0 0 0 0 0 0 0 0 0 0 0 0 0 0 0 0 0 0 0 0 1 1 1 1 1 0
0 0 0 0 0 0 0 0 0 0 0 0 0 0 0 0 0 0 0 0 0 0 0 0 0 0 0 0 0 0 0 0 0 0 0 0 1 1 1 0 0 0 0 0
0 0 0 0 0 0 0 0 0 0 0 0 0 0 0 0 0 0 0 0 0 0 0 0 0 0 0 0 0 0 0 0 0 0 0 0 0 1 0 1 1 1 0 0
0 0 0 0 0 0 0 0 0 0 0 0 0 0 0 0 0 0 0 0 0 0 0 0 0 0 0 0 0 0 0 0 0 0 0 0 0 0 0 1 1 1 1 0
0 0 0 0 0 0 0 0 0 0 0 0 0 0 0 0 0 0 0 0 0 0 0 0 0 0 0 0 0 0 0 0 0 0 0 0 0 0 0 0 0 1 2 2
0 0 0 0 0 0 0 0 0 0 0 0 0 0 0 0 0 0 0 0 0 0 0 0 0 0 0 0 0 0 0 0 0 0 0 0 0 0 0 0 0 0 0 1
0 0 0 0 0 0 0 0 0 0 0 0 0 0 0 0 0 0 0 0 0 0 0 0 0 0 0 0 0 0 0 0 0 0 0 0 0 0 0 0 0 0 0 0
0 0 0 0 0 0 0 0 0 0 0 0 0 0 0 0 0 0 0 0 0 0 0 0 0 0 0 0 0 0 0 0 0 0 0 0 0 0 0 0 0 0 0 0
0 0 0 0 0 0 0 0 0 0 0 0 0 0 0 0 0 0 0 0 0 0 0 0 0 0 0 0 0 0 0 -0 0 0 0 0 0 0 0 0 0 0 0 0
0 0 0 0 0 0 0 0 0 0 -0 -0 -0 0 0 0 0 0 0 0 0 0 0 0 0 0 0 -0 -0 0 0 -0 -0 -0 0 0 0 0 0 0 0 0 0 0
Wind_Speed_500mb
17 15 25 25 13 5 10 12 15 6 6 4 10 11 22 29 17 40 46 50 52 54 50 44 47 47 44 52 53 50 50 49 46 42 37 30 23 23 20 14 12 13 11 11
14 25 19 17 11 7 9 7 9 5 8 4 7 11 16 31 25 33 44 49 51 53 47 47 48 50 52 59 56 52 51 54 49 43 35 30 23 21 19 18 13 14 14 11
23 13 24 19 14 16 9 11 7 6 2 8 8 9 14 17 24 18 36 47 46 52 56 49 49 53 58 60 62 57 52 52 49 46 39 33 29 25 24 22 17 13 13 14
12 12 30 19 19 16 19 14 7 4 1 5 4 7 6 13 24 25 28 39 48 55 57 57 56 54 61 69 65 61 56 55 48 47 43 41 36 32 30 21 17 15 12 12
11 23 30 23 19 16 5 10 9 4 4 4 6 5 12 5 7 19 34 35 37 54 58 64 64 56 59 65 69 68 64 58 55 49 46 43 42 35 27 23 21 17 17 16
8 7 8 13 16 21 20 13 11 7 2 10 9 5 16 10 16 15 21 41 51 51 59 60 62 62 68 61 61 72 74 66 61 55 50 47 42 40 33 30 25 22 18 17
8 6 5 8 15 15 15 17 10 11 10 11 8 10 11 15 21 27 32 28 43 54 59 60 63 71 73 75 68 62 74 74 69 63 56 48 47 45 40 33 28 28 24 18
13 13 11 17 5 10 25 24 10 18 17 15 4 16 12 18 24 31 37 38 8 27 52 61 61 66 78 82 74 64 61 70 73 71 64 54 52 51 49 43 38 33 31 22
8 9 2 17 14 6 12 16 3 10 2 17 8 9 14 27 32 46 51 49 37 13 32 55 59 62 67 80 80 70 61 66 71 72 68 64 56 55 55 51 46 38 37 31
5 11 14 11 4 21 6 7 13 5 19 22 7 7 6 31 36 38 48 53 47 30 21 40 53 54 57 68 76 76 68 63 63 70 70 68 63 53 51 57 50 49 42 38
3 1 7 3 14 14 3 5 6 5 5 13 15 8 9 16 21 26 40 48 51 49 21 20 31 42 67 51 61 71 74 71 68 73 76 73 70 63 51 51 55 53 50 44
8 8 10 9 3 6 10 6 3 14 11 5 2 9 10 13 21 27 37 47 52 55 48 26 3 22 32 52 53 60 66 72 72 68 69 76 76 70 64 54 52 58 57 53
4 6 10 5 6 5 7 9 6 4 1 7 11 11 10 15 25 31 36 42 49 51 56 50 41 17 2 21 36 46 55 55 54 67 75 75 83 83 74 66 57 57 62 62
6 8 6 1 8 3 4 8 10 6 7 14 6 22 10 17 21 30 36 37 42 48 59 51 46 36 20 6 20 35 46 50 55 54 59 63 73 80 82 77 68 60 60 64
7 8 12 17 12 5 1 4 9 9 7 4 18 16 12 13 18 23 26 31 41 46 50 56 54 43 30 8 4 16 28 36 42 51 58 60 64 60 66 77 79 72 66 63
6 9 9 6 6 6 7 10 9 3 3 6 8 10 9 12 13 21 27 32 37 40 42 44 46 49 46 39 22 9 13 24 34 46 52 53 59 60 59 63 69 76 76 73
5 10 5 7 3 4 9 8 10 1 3 2 8 10 9 7 13 19 22 26 29 32 37 40 42 43 46 47 40 23 10 21 32 39 44 51 51 57 59 58 62 67 70 74
8 8 3 8 6 9 9 8 5 3 5 7 9 8 9 5 5 5 19 24 27 30 32 34 37 40 42 45 41 32 22 12 15 34 41 47 48 51 53 60 64 65 61 65
5 6 6 8 11 4 10 3 2 1 6 9 4 6 12 19 9 18 13 27 29 30 29 29 32 35 38 41 42 39 29 23 13 17 34 45 48 49 49 58 62 61 62 66
10 6 3 6 6 11 8 13 4 10 8 8 9 9 16 23 10 8 27 38 37 34 33 37 35 38 36 38 40 39 37 31 26 18 18 36 41 53 54 55 56 57 61 62
7 5 9 9 6 5 8 11 8 9 7 11 7 4 6 7 12 38 44 41 40 40 41 40 41 40 42 44 41 41 39 36 34 28 20 18 29 44 50 54 58 56 58 56
12 13 8 6 8 12 16 10 9 10 5 1 4 3 9 16 24 32 41 43 45 47 49 45 43 46 48 47 46 42 44 42 36 36 25 16 18 23 30 50 56 56 53 50
7 5 6 12 5 11 17 3 5 7 9 10 9 10 14 21 29 37 43 48 49 49 48 45 45 49 52 51 47 50 48 49 45 39 40 28 16 15 19 37 37 50 56 56
9 9 5 4 15 22 16 13 9 10 8 7 9 10 12 18 25 35 41 44 50 52 50 48 48 50 54 53 53 51 53 52 51 51 46 47 38 27 24 21 33 35 43 54
5 19 9 8 11 7 20 20 12 11 11 7 5 6 12 17 26 34 43 44 48 52 50 52 53 55 57 54 58 54 48 53 56 54 51 46 49 40 35 35 28 36 37 51
24 15 12 10 19 17 8 35 24 17 15 16 14 14 13 17 28 36 41 42 40 47 53 59 59 59 58 57 58 60 47 49 60 62 52 49 48 48 42 40 42 38 43 38
Wind_Direction_500mb
164 186 196 188 198 97 120 128 123 92 93 204 197 175 174 164 160 180 181 189 190 196 202 204 204 202 199 194 190 190 188 181 182 184 189 195 198 195 195 190 182 171 169 173
157 209 189 187 202 191 151 148 124 98 46 200 140 116 196 192 183 182 186 193 199 195 199 204 205 204 205 199 194 195 192 187 189 194 196 193 190 194 189 181 182 185 189 179
180 191 170 181 178 185 170 196 167 96 62 92 144 121 147 202 200 183 196 200 203 205 203 204 203 206 211 209 202 199 198 196 199 201 200 199 197 199 198 193 182 175 179 187
197 161 175 183 190 199 204 202 191 155 222 139 313 138 96 174 208 213 202 202 206 207 210 208 208 212 214 215 213 211 207 205 206 211 211 211 209 207 207 202 193 188 187 184
151 164 182 191 198 188 170 169 195 157 148 198 214 219 28 151 195 253 251 231 219 214 212 212 210 210 213 215 218 220 219 215 214 215 217 219 219 219 218 205 196 201 204 197
95 105 174 201 183 179 142 108 81 83 181 205 179 277 51 38 351 335 330 255 230 219 215 215 214 211 219 222 222 226 225 222 221 221 222 222 220 220 216 208 206 200 203 202
119 70 61 27 157 162 168 176 145 172 195 188 93 116 65 26 20 13 357 331 234 224 215 212 211 212 218 223 227 228 229 226 225 225 228 226 224 228 229 220 215 215 210 216
171 154 10 1 19 182 189 199 196 178 187 162 119 145 104 35 19 16 19 25 22 226 217 215 216 211 217 225 227 230 231 225 227 227 229 230 231 232 233 237 232 230 224 217
148 95 29 48 31 314 149 199 54 106 39 184 124 113 196 14 17 17 17 14 5 336 221 215 214 213 215 224 227 230 233 229 229 227 229 231 233 236 233 231 240 242 230 218
125 124 25 12 323 47 8 104 175 210 168 181 116 126 46 0 2 6 9 9 5 353 235 216 215 212 214 224 230 230 233 237 234 232 231 235 234 237 239 236 236 239 233 226
38 2 51 57 36 15 10 132 63 101 340 177 164 133 23 17 13 11 7 14 16 24 28 202 216 222 224 218 224 229 232 236 236 235 236 235 239 236 239 239 240 231 230 231
20 80 77 99 331 339 34 61 350 224 177 63 325 121 33 38 40 24 23 22 29 37 40 42 262 222 225 231 227 231 234 235 238 242 241 241 240 241 239 241 241 233 232 234
14 48 123 159 209 155 55 34 58 96 36 167 196 139 71 61 52 39 35 32 33 40 54 56 50 39 252 228 230 235 238 233 235 239 243 244 242 241 242 243 244 242 237 236
68 64 340 150 74 55 126 47 39 356 200 145 66 137 93 48 48 40 38 41 41 40 41 53 55 57 69 73 232 241 245 248 245 247 246 247 249 246 245 244 245 247 244 243
46 92 88 76 76 66 20 2 24 51 83 325 135 127 90 55 42 38 42 43 42 38 35 36 41 41 45 45 232 228 238 246 254 252 252 253 258 257 253 247 245 246 249 248
19 117 128 77 39 16 289 283 300 311 122 128 130 124 85 77 69 48 38 39 35 29 26 26 24 30 30 20 15 291 258 245 234 240 250 252 255 256 254 251 245 246 249 251
48 138 147 150 350 318 256 253 219 132 86 154 202 89 118 85 47 38 34 32 27 19 15 14 13 11 11 14 8 3 298 254 251 246 244 249 253 256 255 251 249 247 246 249
125 109 72 142 165 219 85 18 350 268 61 93 106 96 70 50 340 121 49 29 14 10 7 4 1 359 358 359 3 2 347 327 286 255 252 256 259 256 256 255 252 250 249 249
27 130 115 186 200 6 182 56 81 178 130 43 117 44 356 341 314 167 24 6 356 348 345 346 346 347 347 347 351 355 352 345 318 291 261 254 252 249 251 254 252 250 251 248
87 81 155 165 195 206 93 135 115 163 233 77 84 43 6 346 254 120 344 337 331 329 326 325 327 328 335 339 339 343 345 340 342 328 289 250 257 257 257 255 256 255 257 253
136 100 186 176 222 228 152 154 158 216 81 126 102 93 349 321 301 301 317 320 320 318 316 312 310 314 316 321 329 329 331 332 326 328 319 287 259 254 253 258 258 253 257 254
179 163 173 171 210 225 154 141 223 95 110 91 318 315 304 302 302 305 310 313 315 313 311 307 304 298 304 308 314 315 318 316 317 311 315 307 293 264 257 257 256 257 248 253
214 228 190 212 191 141 166 178 212 215 225 221 232 261 281 299 307 310 308 310 313 311 307 306 301 294 291 298 302 304 305 307 303 301 297 298 297 302 301 268 263 256 256 250
210 198 229 194 194 213 225 217 214 203 213 246 267 278 301 316 319 310 302 298 303 310 307 304 300 294 288 288 291 292 297 300 298 295 294 290 292 276 265 281 285 270 265 255
190 159 192 257 239 188 221 211 194 165 151 165 207 252 295 312 326 322 309 301 301 306 309 306 299 292 287 287 283 285 286 291 295 293 292 289 285 283 277 269 269 277 275 264
191 183 184 216 196 185 206 202 193 182 198 202 216 252 283 292 310 326 319 309 307 311 315 312 302 294 288 283 282 281 276 278 288 291 291 290 289 284 276 273 273 268 267 273
Wind_Speed_850mb
17 15 25 25 13 5 10 12 15 6 6 4 10 11 22 29 17 40 46 50 52 54 50 44 47 47 44 52 53 50 50 49 46 42 37 30 23 23 20 14 12 13 11 11
14 25 19 17 11 7 9 7 9 5 8 4 7 11 16 31 25 33 44 49 51 53 47 47 48 50 52 59 56 52 51 54 49 43 35 30 23 21 19 18 13 14 14 11
23 13 24 19 14 16 9 11 7 6 2 8 8 9 14 17 24 18 36 47 46 52 56 49 49 53 58 60 62 57 52 52 49 46 39 33 29 25 24 22 17 13 13 14
12 12 30 19 19 16 19 14 7 4 1 5 4 7 6 13 24 25 28 39 48 55 57 57 56 54 61 69 65 61 56 55 48 47 43 41 36 32 30 21 17 15 12 12
11 23 30 23 19 16 5 10 9 4 4 4 6 5 12 5 7 19 34 35 37 54 58 64 64 56 59 65 69 68 64 58 55 49 46 43 42 35 27 23 21 17 17 16
8 7 8 13 16 21 20 13 11 7 2 10 9 5 16 10 16 15 21 41 51 51 59 60 62 62 68 61 61 72 74 66 61 55 50 47 42 40 33 30 25 22 18 17
8 6 5 8 15 15 15 17 10 11 10 11 8 10 11 15 21 27 32 28 43 54 59 60 63 71 73 75 68 62 74 74 69 63 56 48 47 45 40 33 28 28 24 18
13 13 11 17 5 10 25 24 10 18 17 15 4 16 12 18 24 31 37 38 8 27 52 61 61 66 78 82 74 64 61 70 73 71 64 54 52 51 49 43 38 33 31 22
8 9 2 17 14 6 12 16 3 10 2 17 8 9 14 27 32 46 51 49 37 13 32 55 59 62 67 80 80 70 61 66 71 72 68 64 56 55 55 51 46 38 37 31
5 11 14 11 4 21 6 7 13 5 19 22 7 7 6 31 36 38 48 53 47 30 21 40 53 54 57 68 76 76 68 63 63 70 70 68 63 53 51 57 50 49 42 38
3 1 7 3 14 14 3 5 6 5 5 13 15 8 9 16 21 26 40 48 51 49 21 20 31 42 67 51 61 71 74 71 68 73 76 73 70 63 51 51 55 53 50 44
8 8 10 9 3 6 10 6 3 14 11 5 2 9 10 13 21 27 37 47 52 55 48 26 3 22 32 52 53 60 66 72 72 68 69 76 76 70 64 54 52 58 57 53
4 6 10 5 6 5 7 9 6 4 1 7 11 11 10 15 25 31 36 42 49 51 56 50 41 17 2 21 36 46 55 55 54 67 75 75 83 83 74 66 57 57 62 62
6 8 6 1 8 3 4 8 10 6 7 14 6 22 10 17 21 30 36 37 42 48 59 51 46 36 20 6 20 35 46 50 55 54 59 63 73 80 82 77 68 60 60 64
7 8 12 17 12 5 1 4 9 9 7 4 18 16 12 13 18 23 26 31 41 46 50 56 54 43 30 8 4 16 28 36 42 51 58 60 64 60 66 77 79 72 66 63
6 9 9 6 6 6 7 10 9 3 3 6 8 10 9 12 13 21 27 32 37 40 42 44 46 49 46 39 22 9 13 24 34 46 52 53 59 60 59 63 69 76 76 73
5 10 5 7 3 4 9 8 10 1 3 2 8 10 9 7 13 19 22 26 29 32 37 40 42 43 46 47 40 23 10 21 32 39 44 51 51 57 59 58 62 67 70 74
8 8 3 8 6 9 9 8 5 3 5 7 9 8 9 5 5 5 19 24 27 30 32 34 37 40 42 45 41 32 22 12 15 34 41 47 48 51 53 60 64 65 61 65
5 6 6 8 11 4 10 3 2 1 6 9 4 6 12 19 9 18 13 27 29 30 29 29 32 35 38 41 42 39 29 23 13 17 34 45 48 49 49 58 62 61 62 66
10 6 3 6 6 11 8 13 4 10 8 8 9 9 16 23 10 8 27 38 37 34 33 37 35 38 36 38 40 39 37 31 26 18 18 36 41 53 54 55 56 57 61 62
7 5 9 9 6 5 8 11 8 9 7 11 7 4 6 7 12 38 44 41 40 40 41 40 41 40 42 44 41 41 39 36 34 28 20 18 29 44 50 54 58 56 58 56
12 13 8 6 8 12 16 10 9 10 5 1 4 3 9 16 24 32 41 43 45 47 49 45 43 46 48 47 46 42 44 42 36 36 25 16 18 23 30 50 56 56 53 50
7 5 6 12 5 11 17 3 5 7 9 10 9 10 14 21 29 37 43 48 49 49 48 45 45 49 52 51 47 50 48 49 45 39 40 28 16 15 19 37 37 50 56 56
9 9 5 4 15 22 16 13 9 10 8 7 9 10 12 18 25 35 41 44 50 52 50 48 48 50 54 53 53 51 53 52 51 51 46 47 38 27 24 21 33 35 43 54
5 19 9 8 11 7 20 20 12 11 11 7 5 6 12 17 26 34 43 44 48 52 50 52 53 55 57 54 58 54 48 53 56 54 51 46 49 40 35 35 28 36 37 51
24 15 12 10 19 17 8 35 24 17 15 16 14 14 13 17 28 36 41 42 40 47 53 59 59 59 58 57 58 60 47 49 60 62 52 49 48 48 42 40 42 38 43 38
Wind_Direction_850mb
164 186 196 188 198 97 120 128 123 92 93 204 197 175 174 164 160 180 181 189 190 196 202 204 204 202 199 194 190 190 188 181 182 184 189 195 198 195 195 190 182 171 169 173
157 209 189 187 202 191 151 148 124 98 46 200 140 116 196 192 183 182 186 193 199 195 199 204 205 204 205 199 194 195 192 187 189 194 196 193 190 194 189 181 182 185 189 179
180 191 170 181 178 185 170 196 167 96 62 92 144 121 147 202 200 183 196 200 203 205 203 204 203 206 211 209 202 199 198 196 199 201 200 199 197 199 198 193 182 175 179 187
197 161 175 183 190 199 204 202 191 155 222 139 313 138 96 174 208 213 202 202 206 207 210 208 208 212 214 215 213 211 207 205 206 211 211 211 209 207 207 202 193 188 187 184
151 164 182 191 198 188 170 169 195 157 148 198 214 219 28 151 195 253 251 231 219 214 212 212 210 210 213 215 218 220 219 215 214 215 217 219 219 219 218 205 196 201 204 197
95 105 174 201 183 179 142 108 81 83 181 205 179 277 51 38 351 335 330 255 230 219 215 215 214 211 219 222 222 226 225 222 221 221 222 222 220 220 216 208 206 200 203 202
119 70 61 27 157 162 168 176 145 172 195 188 93 116 65 26 20 13 357 331 234 224 215 212 211 212 218 223 227 228 229 226 225 225 228 226 224 228 229 220 215 215 210 216
171 154 10 1 19 182 189 199 196 178 187 162 119 145 104 35 19 16 19 25 22 226 217 215 216 211 217 225 227 230 231 225 227 227 229 230 231 232 233 237 232 230 224 217
148 95 29 48 31 314 149 199 54 106 39 184 124 113 196 14 17 17 17 14 5 336 221 215 214 213 215 224 227 230 233 229 229 227 229 231 233 236 233 231 240 242 230 218
125 124 25 12 323 47 8 104 175 210 168 181 116 126 46 0 2 6 9 9 5 353 235 216 215 212 214 224 230 230 233 237 234 232 231 235 234 237 239 236 236 239 233 226
38 2 51 57 36 15 10 132 63 101 340 177 164 133 23 17 13 11 7 14 16 24 28 202 216 222 224 218 224 229 232 236 236 235 236 235 239 236 239 239 240 231 230 231
20 80 77 99 331 339 34 61 350 224 177 63 325 121 33 38 40 24 23 22 29 37 40 42 262 222 225 231 227 231 234 235 238 242 241 241 240 241 239 241 241 233 232 234
14 48 123 159 209 155 55 34 58 96 36 167 196 139 71 61 52 39 35 32 33 40 54 56 50 39 252 228 230 235 238 233 235 239 243 244 242 241 242 243 244 242 237 236
68 64 340 150 74 55 126 47 39 356 200 145 66 137 93 48 48 40 38 41 41 40 41 53 55 57 69 73 232 241 245 248 245 247 246 247 249 246 245 244 245 247 244 243
46 92 88 76 76 66 20 2 24 51 83 325 135 127 90 55 42 38 42 43 42 38 35 36 41 41 45 45 232 228 238 246 254 252 252 253 258 257 253 247 245 246 249 248
19 117 128 77 39 16 289 283 300 311 122 128 130 124 85 77 69 48 38 39 35 29 26 26 24 30 30 20 15 291 258 245 234 240 250 252 255 256 254 251 245 246 249 251
48 138 147 150 350 318 256 253 219 132 86 154 202 89 118 85 47 38 34 32 27 19 15 14 13 11 11 14 8 3 298 254 251 246 244 249 253 256 255 251 249 247 246 249
125 109 72 142 165 219 85 18 350 268 61 93 106 96 70 50 340 121 49 29 14 10 7 4 1 359 358 359 3 2 347 327 286 255 252 256 259 256 256 255 252 250 249 249
27 130 115 186 200 6 182 56 81 178 130 43 117 44 356 341 314 167 24 6 356 348 345 346 346 347 347 347 351 355 352 345 318 291 261 254 252 249 251 254 252 250 251 248
87 81 155 165 195 206 93 135 115 163 233 77 84 43 6 346 254 120 344 337 331 329 326 325 327 328 335 339 339 343 345 340 342 328 289 250 257 257 257 255 256 255 257 253
136 100 186 176 222 228 152 154 158 216 81 126 102 93 349 321 301 301 317 320 320 318 316 312 310 314 316 321 329 329 331 332 326 328 319 287 259 254 253 258 258 253 257 254
179 163 173 171 210 225 154 141 223 95 110 91 318 315 304 302 302 305 310 313 315 313 311 307 304 298 304 308 314 315 318 316 317 311 315 307 293 264 257 257 256 257 248 253
214 228 190 212 191 141 166 178 212 215 225 221 232 261 281 299 307 310 308 310 313 311 307 306 301 294 291 298 302 304 305 307 303 301 297 298 297 302 301 268 263 256 256 250
210 198 229 194 194 213 225 217 214 203 213 246 267 278 301 316 319 310 302 298 303 310 307 304 300 294 288 288 291 292 297 300 298 295 294 290 292 276 265 281 285 270 265 255
190 159 192 257 239 188 221 211 194 165 151 165 207 252 295 312 326 322 309 301 301 306 309 306 299 292 287 287 283 285 286 291 295 293 292 289 285 283 277 269 269 277 275 264
191 183 184 216 196 185 206 202 193 182 198 202 216 252 283 292 310 326 319 309 307 311 315 312 302 294 288 283 282 281 276 278 288 291 291 290 289 284 276 273 273 268 267 273